Location: Pilipovskiye Korichintsy
(49.1833°N, 27.4667°E)
Time: 22:44:05
(UTC+00:00)

Cosmos 2016 Rocket - Pass Details

Date: 14 July 2020
Orbit: 948 x 999 km, 83.0° (Epoch: 10 August)

Event Time Altitude Azimuth Distance (km) Brightness Sun altitude
Exits shadow 00:09:03 20° 191° (S) 2,054 5.1 -14.8°
Maximum altitude 00:13:30 84° 279° (W) 977 4.0 -14.5°
Drops below altitude 10° 00:19:47 10° 8° (N) 2,733 7.5 -14.0°
Sets 00:22:19 0° 10° (N) 3,693 8.4 -13.8°
